| time (UTC) | temp C | wind direction | speed KPH | gust KPH | rain 1hr cm | rain 24hr cm | rain mn cm | humidity % | barometer mb |
| 20260504081504 | 13 | 360 | 8.0 | 16.1 | 0.00 | 0.00 | 0.00 | 50 | 965.0 |
| 20260504044539 | 13 | 360 | 0.0 | 4.8 | 0.00 | 0.00 | 0.00 | 44 | 967.4 |
| 20260504043030 | 14 | 360 | 1.6 | 6.4 | 0.00 | 0.00 | 0.00 | 44 | 967.6 |
| 20260504041530 | 13 | 360 | 1.6 | 6.4 | 0.00 | 0.00 | 0.00 | 44 | 967.8 |
| 20260504040027 | 13 | 360 | 0.0 | 3.2 | 0.00 | 0.00 | 0.00 | 45 | 967.9 |
| 20260504034526 | 13 | 360 | 0.0 | 4.8 | 0.00 | 0.00 | 0.00 | 45 | 968.1 |
| 20260504033025 | 16 | 360 | 0.0 | 1.6 | 0.00 | 0.00 | 0.00 | 39 | 968.3 |
| 20260504031525 | 16 | 360 | 0.0 | 4.8 | 0.00 | 0.00 | 0.00 | 37 | 968.4 |
| 20260504030036 | 16 | 360 | 1.6 | 4.8 | 0.00 | 0.00 | 0.00 | 37 | 968.4 |
| 20260504024525 | 16 | 360 | 0.0 | 3.2 | 0.00 | 0.00 | 0.00 | 37 | 968.5 |
| 20260504023024 | 17 | 360 | 3.2 | 6.4 | 0.00 | 0.00 | 0.00 | 35 | 968.2 |
| 20260504021527 | 17 | 360 | 1.6 | 4.8 | 0.00 | 0.00 | 0.00 | 35 | 968.1 |
| 20260504020022 | 17 | 360 | 0.0 | 3.2 | 0.00 | 0.00 | 0.00 | 34 | 968.2 |
| 20260504014522 | 18 | 360 | 0.0 | 4.8 | 0.00 | 0.00 | 0.00 | 34 | 968.1 |
| 20260504013022 | 18 | 360 | 3.2 | 8.0 | 0.00 | 0.00 | 0.00 | 34 | 968.2 |
| 20260504011523 | 18 | 6 | 4.8 | 12.9 | 0.00 | 0.00 | 0.00 | 33 | 968.3 |
| 20260504010022 | 20 | 5 | 11.3 | 14.5 | 0.00 | 0.00 | 0.00 | 31 | 968.2 |
| 20260504004522 | 20 | 5 | 8.0 | 14.5 | 0.00 | 0.00 | 0.00 | 30 | 968.2 |
| 20260504003019 | 21 | 6 | 3.2 | 14.5 | 0.00 | 0.00 | 0.00 | 29 | 968.3 |
| 20260504001518 | 21 | 5 | 8.0 | 20.9 | 0.00 | 0.00 | 0.00 | 28 | 968.2 |
| 20260504000017 | 21 | 5 | 8.0 | 19.3 | 0.00 | 0.00 | 0.00 | 28 | 968.3 |
| 20260503234526 | 22 | 6 | 17.7 | 32.2 | 0.00 | 0.00 | 0.00 | 26 | 968.3 |
| 20260503233015 | 22 | 5 | 14.5 | 25.7 | 0.00 | 0.00 | 0.00 | 26 | 968.4 |
| 20260503231516 | 22 | 5 | 12.9 | 27.4 | 0.00 | 0.00 | 0.00 | 28 | 968.3 |
| 20260503230017 | 22 | 5 | 9.7 | 24.1 | 0.00 | 0.00 | 0.00 | 27 | 968.3 |
| 20260503224515 | 22 | 4 | 22.5 | 33.8 | 0.00 | 0.00 | 0.00 | 26 | 968.3 |
| 20260503223012 | 22 | 6 | 16.1 | 27.4 | 0.00 | 0.00 | 0.00 | 27 | 968.2 |
| 20260503221511 | 22 | 6 | 12.9 | 32.2 | 0.00 | 0.00 | 0.00 | 27 | 968.2 |
| 20260503220028 | 22 | 5 | 17.7 | 30.6 | 0.00 | 0.00 | 0.00 | 26 | 968.2 |
| 20260503214509 | 22 | 5 | 16.1 | 25.7 | 0.00 | 0.00 | 0.00 | 26 | 968.4 |
| 20260503213011 | 23 | 5 | 12.9 | 24.1 | 0.00 | 0.00 | 0.00 | 27 | 968.4 |
| 20260503211506 | 22 | 6 | 14.5 | 30.6 | 0.00 | 0.00 | 0.00 | 27 | 968.1 |
| 20260503210005 | 22 | 6 | 12.9 | 25.7 | 0.00 | 0.00 | 0.00 | 28 | 968.3 |
| 20260503204504 | 23 | 5 | 9.7 | 20.9 | 0.00 | 0.00 | 0.00 | 26 | 968.5 |
| 20260503203105 | 22 | 6 | 14.5 | 32.2 | 0.00 | 0.00 | 0.00 | 27 | 968.5 |
| 20260503201559 | 22 | 6 | 6.4 | 22.5 | 0.00 | 0.00 | 0.00 | 31 | 968.4 |
| 20260503194556 | 22 | 6 | 9.7 | 35.4 | 0.00 | 0.00 | 0.00 | 33 | 968.6 |
| 20260503193101 | 22 | 6 | 14.5 | 29.0 | 0.00 | 0.00 | 0.00 | 31 | 968.5 |
| 20260503191552 | 22 | 6 | 16.1 | 30.6 | 0.00 | 0.00 | 0.00 | 32 | 968.6 |
| 20260503190057 | 21 | 6 | 20.9 | 43.5 | 0.00 | 0.00 | 0.00 | 31 | 968.6 |
| 20260503184603 | 21 | 5 | 14.5 | 27.4 | 0.00 | 0.00 | 0.00 | 32 | 968.8 |
| 20260503183057 | 21 | 6 | 19.3 | 30.6 | 0.00 | 0.00 | 0.00 | 34 | 968.6 |
| 20260503181545 | 21 | 6 | 16.1 | 35.4 | 0.00 | 0.00 | 0.00 | 35 | 968.7 |
| 20260503180047 | 21 | 6 | 16.1 | 27.4 | 0.00 | 0.00 | 0.00 | 37 | 968.8 |
| 20260503174543 | 21 | 5 | 14.5 | 32.2 | 0.00 | 0.00 | 0.00 | 36 | 968.8 |
| 20260503173040 | 20 | 6 | 24.1 | 41.8 | 0.00 | 0.00 | 0.00 | 35 | 968.8 |
| 20260503171537 | 20 | 6 | 14.5 | 33.8 | 0.00 | 0.00 | 0.00 | 38 | 968.9 |